Weather History for Casper, WY

Change the Weather History Date:

Saturday, November 30, 2013

  Actual Average Record
Temperature  
Mean Temperature 40 °F 26 °F  
Max Temperature 49 °F 37 °F 63 °F (1999)
Min Temperature 31 °F 16 °F -17 °F (1985)
Degree Days  
Heating Degree Days 25 39  
Month to date heating degree days 955 958  
Since 1 July heating degree days 1844 1854  
Cooling Degree Days 0 0  
Month to date cooling degree days 0 0  
Year to date cooling degree days 618 422  
Moisture  
Dew Point 23 °F    
Average Humidity 53    
Maximum Humidity 69    
Minimum Humidity 37    
Precipitation  
Precipitation 0.00 in 0.02 in 0.15 in (2005)
Month to date precipitation 0.24 0.76  
Year to date precipitation 13.94 12.03  
Snow  
Snow 0.00 in 0.30 in - ()
Month to date snowfall 3.6 10.3  
Since 1 July snowfall 24.8 19.5  
Since 1 September snowfall 24.8 19.5  
Snow Depth 0.00 in    
Sea Level Pressure  
Sea Level Pressure 30.14 in    
Wind  
Wind Speed 16 mph (SW)    
Max Wind Speed 25 mph    
Max Gust Speed 31 mph    
Visibility 10 miles    
Events      
T = Trace of Precipitation, MM = Missing Value Source: NWS Daily Summary

Daily Weather History Graph

Daily Weather History Graph

Search for Another Location

Airport:

Trip Planner

Search our weather history database for the weather conditions in past years. The results will help you decide how hot, cold, wet, or windy it might be!

Date:

Astronomy

Nov. 30, 2013 Rise Set
Actual Time 7:16 AM MST 4:32 PM MST
Civil Twilight 6:44 AM MST 5:04 PM MST
Nautical Twilight 6:09 AM MST 5:39 PM MST
Astronomical Twilight 5:35 AM MST 6:13 PM MST
Moon 4:27 AM MST (11/30) 3:01 PM MST (11/30)
Length of Visible Light 10h 19m
Length of Day
9h 16m
Waning Crescent, 7% of the Moon is Illuminated
Nov 30
Waning Crescent
Dec 2
New
Dec 9
First Quarter
Dec 17
Full
Dec 25
Last Quarter

Hourly Weather History & Observations

Time (MST) Temp. Windchill Dew Point Humidity Pressure Visibility Wind Dir Wind Speed Gust Speed Precip Events Conditions
12:53 AM 37.0 °F 27.7 °F 23.0 °F 57% 30.11 in 10.0 mi SW 16.1 mph - N/A   Clear
1:53 AM 37.0 °F 26.7 °F 23.0 °F 57% 30.10 in 10.0 mi SW 19.6 mph - N/A   Clear
2:53 AM 36.0 °F 26.0 °F 23.0 °F 59% 30.11 in 10.0 mi SW 17.3 mph - N/A   Clear
3:53 AM 36.0 °F 25.3 °F 23.0 °F 59% 30.12 in 10.0 mi SW 19.6 mph - N/A   Clear
4:53 AM 35.1 °F 24.5 °F 21.9 °F 59% 30.15 in 10.0 mi SW 18.4 mph - N/A   Clear
5:53 AM 34.0 °F 23.8 °F 21.9 °F 61% 30.16 in 10.0 mi SW 16.1 mph - N/A   Clear
6:53 AM 32.0 °F 23.6 °F 21.9 °F 66% 30.19 in 10.0 mi SW 10.4 mph - N/A   Clear
7:53 AM 35.1 °F 25.2 °F 23.0 °F 61% 30.18 in 10.0 mi SSW 16.1 mph 24.2 mph N/A   Clear
8:53 AM 36.0 °F 26.3 °F 21.9 °F 57% 30.20 in 10.0 mi SSW 16.1 mph 26.5 mph N/A   Clear
9:53 AM 39.0 °F 28.8 °F 23.0 °F 53% 30.19 in 10.0 mi SSW 21.9 mph - N/A   Clear
10:53 AM 45.0 °F 37.1 °F 23.0 °F 42% 30.17 in 10.0 mi SSW 19.6 mph - N/A   Clear
11:53 AM 46.9 °F - 21.9 °F 37% 30.13 in 10.0 mi SW 24.2 mph 28.8 mph N/A   Clear
12:53 PM 46.0 °F 38.3 °F 21.0 °F 37% 30.12 in 10.0 mi SW 20.7 mph 26.5 mph N/A   Mostly Cloudy
1:53 PM 46.9 °F - 23.0 °F 39% 30.10 in 10.0 mi SW 18.4 mph - N/A   Scattered Clouds
2:53 PM 46.9 °F - 23.0 °F 39% 30.08 in 10.0 mi SW 17.3 mph - N/A   Partly Cloudy
3:53 PM 45.0 °F 38.5 °F 23.0 °F 42% 30.09 in 10.0 mi SW 13.8 mph - N/A   Clear
4:53 PM 39.0 °F 29.9 °F 25.0 °F 57% 30.12 in 10.0 mi South 17.3 mph - N/A   Clear
5:53 PM 37.0 °F 29.8 °F 25.0 °F 62% 30.14 in 10.0 mi SW 10.4 mph - N/A   Clear
6:53 PM 36.0 °F 26.7 °F 25.0 °F 64% 30.15 in 10.0 mi SSW 15.0 mph - N/A   Clear
7:53 PM 37.0 °F 27.7 °F 24.1 °F 59% 30.14 in 10.0 mi SSW 16.1 mph - N/A   Clear
8:53 PM 35.1 °F 27.9 °F 24.1 °F 64% 30.14 in 10.0 mi SW 9.2 mph - N/A   Clear
9:53 PM 33.1 °F 27.7 °F 24.1 °F 70% 30.15 in 10.0 mi WSW 5.8 mph - N/A   Clear
10:53 PM 33.1 °F 24.9 °F 24.1 °F 70% 30.13 in 10.0 mi SW 10.4 mph - N/A   Clear
11:53 PM 32.0 °F 23.6 °F 23.0 °F 69% 30.12 in 10.0 mi SW 10.4 mph - N/A   Clear